Content
SEND FEEDBACK

Daily
Averages
Monthly
Summary
United States of America

CLAYTON, NORTH CAROLINA


Home > North America > United States > North Carolina
Elevation: 326 feet     Latitude: 35 39N     Longitude: 078 30W

WEATHER
 
SELECT A DAY
Number of Records: 346,906;   Date Range: 9/27/00 - 11/25/14
 
SHARE

PRINT THIS DATA

[ ← Previous Day ]
WEATHER ALMANAC - JANUARY 31, 2013
[ Next Day → ]
[ °C ]   °F
Weather ElementAverageHighLow
Temperature47.2 °F62.6 °F (12:35 am)30.2 °F (11:35 pm)
Dewpoint31.1 °F60.8 °F (12:35 am)19.4 °F (1:55 pm)
Humidity57.8 %94 % (12:35 am)28 % (1:55 pm)
Barometer29.82 in30.04 in (11:15 pm)29.49 in (12:35 am)
Wind Speed9 mph18.4 mph (1:55 pm)
Wind Gust28.8 mph (1:15 am)
Weather ElementAverage
Visibility9.9 mi
Wind DirectionSSW (209.2 °)

Weather ElementTotal
Precipitation0.58 in
Heating Degree Days18.6 (Base 65)
Averaged from 71 records on January 31, 2013
WEATHER CONDITIONS BREAKOUT
WIND DIRECTION BREAKOUT
WEATHER BY HOUR - JANUARY 31, 2013
[ °C ]   °F
Local TimeTemperatureDewpointHumidityBarometerVisibilityWind DirectionWind SpeedGust SpeedPrecipitationEventsConditions
12:35 AM62.6 °F60.8 °F94 %29.49 in7.0 miWSW (250°)8.1 mph21.9 mph0.20 in
12:55 AM60.8 °F55.4 °F82 %29.51 in10.0 miWSW (250°)13.8 mph27.6 mph0.21 inOvercast
1:15 AM57.2 °F53.6 °F88 %29.53 in7.0 miWSW (240°)15.0 mph28.8 mph0.02 inOvercast
1:35 AM55.4 °F51.8 °F88 %29.55 in10.0 miWSW (250°)13.8 mph27.6 mph0.03 inOvercast
1:55 AM53.6 °F51.8 °F94 %29.54 in10.0 miSW (230°)9.2 mph23.0 mph0.03 inOvercast
2:15 AM53.6 °F50.0 °F88 %29.54 in10.0 miSW (220°)11.5 mph19.6 mph0.02 inOvercast
2:35 AM51.8 °F48.2 °F88 %29.54 in10.0 miSW (230°)13.8 mph28.8 mph0.02 inOvercast
2:55 AM51.8 °F46.4 °F82 %29.54 in10.0 miSW (220°)12.7 mph21.9 mph0.02 inOvercast
3:15 AM51.8 °F46.4 °F82 %29.54 in10.0 miSW (230°)15.0 mph21.9 mphOvercast
3:35 AM51.8 °F46.4 °F82 %29.55 in10.0 miSW (230°)15.0 mph23.0 mphScattered Clouds
3:55 AM51.8 °F44.6 °F76 %29.56 in10.0 miWSW (240°)15.0 mph23.0 mphScattered Clouds
4:15 AM51.8 °F44.6 °F76 %29.58 in10.0 miWSW (240°)11.5 mph23.0 mphMostly Cloudy
4:35 AM51.8 °F44.6 °F76 %29.59 in10.0 miSW (230°)16.1 mph25.3 mphOvercast
4:55 AM51.8 °F42.8 °F71 %29.60 in10.0 miWSW (240°)11.5 mph26.5 mphOvercast
5:15 AM51.8 °F42.8 °F71 %29.61 in10.0 miSW (230°)13.8 mph20.7 mphOvercast
5:35 AM51.8 °F42.8 °F71 %29.62 in10.0 miWSW (240°)10.4 mph21.9 mphOvercast
5:55 AM51.8 °F42.8 °F71 %29.64 in10.0 miWSW (240°)16.1 mph26.5 mphOvercast
6:15 AM48.2 °F42.8 °F82 %29.67 in10.0 miWest (270°)15.0 mph27.6 mph0.01 inOvercast
6:35 AM46.4 °F39.2 °F76 %29.68 in10.0 miWSW (250°)12.7 mph21.9 mph0.01 inOvercast
6:55 AM48.2 °F39.2 °F71 %29.69 in10.0 miWSW (250°)8.1 mph18.4 mph0.01 inOvercast
7:15 AM48.2 °F37.4 °F66 %29.71 in10.0 miWSW (240°)8.1 mph16.1 mphOvercast
7:35 AM48.2 °F35.6 °F62 %29.72 in10.0 miWSW (250°)10.4 mph21.9 mphOvercast
7:55 AM48.2 °F32.0 °F54 %29.75 in10.0 miWest (260°)6.9 mph21.9 mphScattered Clouds
8:15 AM48.2 °F32.0 °F54 %29.76 in10.0 miWSW (250°)10.4 mph20.7 mphClear
8:35 AM48.2 °F32.0 °F54 %29.77 in10.0 miWest (260°)8.1 mph19.6 mphScattered Clouds
8:55 AM48.2 °F30.2 °F50 %29.80 in10.0 miWest (270°)13.8 mph23.0 mphScattered Clouds
9:15 AM46.4 °F26.6 °F46 %29.82 in10.0 miWest (270°)16.1 mph25.3 mphClear
9:35 AM46.4 °F26.6 °F46 %29.84 in10.0 miWest (280°)12.7 mph23.0 mphClear
9:55 AM46.4 °F26.6 °F46 %29.84 in10.0 miWSW (250°)13.8 mph24.2 mphClear
10:15 AM46.4 °F26.6 °F46 %29.85 in10.0 miWest (280°)10.4 mph27.6 mphClear
10:35 AM48.2 °F26.6 °F43 %29.86 in10.0 miWest (270°)13.8 mph21.9 mphClear
10:55 AM48.2 °F24.8 °F40 %29.87 in10.0 miWest (270°)10.4 mph23.0 mphClear
11:15 AM50.0 °F23.0 °F35 %29.87 in10.0 miWSW (250°)12.7 mph21.9 mphClear
11:35 AM48.2 °F23.0 °F37 %29.87 in10.0 miWest (260°)9.2 mph23.0 mphClear
11:55 AM50.0 °F23.0 °F35 %29.87 in10.0 miWest (270°)9.2 mph19.6 mphClear
12:15 PM50.0 °F23.0 °F35 %29.85 in10.0 miWest (270°)11.5 mph26.5 mphClear
12:35 PM50.0 °F23.0 °F35 %29.85 in10.0 miWNW (290°)11.5 mph19.6 mphClear
12:55 PM50.0 °F23.0 °F35 %29.85 in10.0 miNW (310°)11.5 mph25.3 mphClear
1:15 PM51.8 °F23.0 °F33 %29.85 in10.0 miWest (280°)11.5 mph20.7 mphClear
1:35 PM50.0 °F23.0 °F35 %29.85 in10.0 miWest (260°)12.7 mph24.2 mphClear
1:55 PM51.8 °F19.4 °F28 %29.85 in10.0 miWest (270°)18.4 mph28.8 mphClear
2:15 PM51.8 °F21.2 °F30 %29.86 in10.0 miWest (270°)8.1 mph20.7 mphClear
2:35 PM51.8 °F21.2 °F30 %29.86 in10.0 miWest (260°)13.8 mph19.6 mphClear
2:55 PM51.8 °F21.2 °F30 %29.87 in10.0 miWest (270°)12.7 mph25.3 mphClear
3:15 PM51.8 °F21.2 °F30 %29.88 in10.0 miWest (260°)10.4 mph25.3 mphClear
3:35 PM51.8 °F21.2 °F30 %29.88 in10.0 miWest (270°)10.4 mph17.3 mphClear
3:55 PM51.8 °F21.2 °F30 %29.90 in10.0 miWest (260°)8.1 mphClear
4:15 PM50.0 °F21.2 °F32 %29.90 in10.0 miWest (270°)11.5 mph26.5 mphClear
4:35 PM50.0 °F19.4 °F30 %29.92 in10.0 miWest (270°)8.1 mph25.3 mphClear
4:55 PM50.0 °F21.2 °F32 %29.93 in10.0 miWest (270°)10.4 mph19.6 mphClear
5:15 PM48.2 °F19.4 °F32 %29.93 in10.0 miWest (280°)8.1 mph20.7 mphClear
5:35 PM46.4 °F19.4 °F34 %29.94 in10.0 miWest (260°)6.9 mphClear
5:55 PM46.4 °F19.4 °F34 %29.95 in10.0 miWest (270°)4.6 mphClear
6:15 PM44.6 °F21.2 °F39 %29.96 in10.0 miWSW (250°)4.6 mphClear
6:35 PM44.6 °F21.2 °F39 %29.97 in10.0 miWSW (250°)5.8 mphClear
6:55 PM44.6 °F21.2 °F39 %29.98 in10.0 miWSW (250°)5.8 mphClear
7:15 PM44.6 °F21.2 °F39 %29.99 in10.0 miWSW (250°)3.5 mphClear
7:35 PM42.8 °F23.0 °F46 %30.00 in10.0 miWSW (250°)3.5 mphClear
7:55 PM41.0 °F23.0 °F49 %30.01 in10.0 miCalmClear
8:15 PM41.0 °F23.0 °F49 %30.02 in10.0 miCalmClear
8:35 PM41.0 °F23.0 °F49 %30.02 in10.0 miCalmClear
8:55 PM35.6 °F30.2 °F81 %30.02 in10.0 miCalmClear
9:15 PM33.8 °F28.4 °F81 %30.03 in10.0 miCalmClear
9:35 PM33.8 °F28.4 °F81 %30.03 in10.0 miCalmClear
9:55 PM32.0 °F28.4 °F87 %30.02 in10.0 miCalmClear
10:15 PM32.0 °F28.4 °F87 %30.03 in10.0 miCalmClear
10:35 PM32.0 °F28.4 °F87 %30.03 in10.0 miCalmClear
10:55 PM32.0 °F28.4 °F87 %30.03 in10.0 miCalmClear
11:15 PM32.0 °F28.4 °F87 %30.04 in10.0 miCalmClear
11:35 PM30.2 °F28.4 °F93 %30.04 in10.0 miCalmClear
11:55 PM32.0 °F28.4 °F87 %30.03 in10.0 miCalmClear
Hourly data recorded from KJNX, located miles away from Clayton, North Carolina







STORIES FROM OUR PARTNERS